Regional Weather Roundup
Issued by NWS

Home | Current Version | Previous Version | Graphics & Text | Print | Product List | Glossary On
Versions: 1 2 3 4 5 6 7 8 9 10 11 12 13 14 15 16 17 18 19 20 21 22 23 24 25 26 27 28 29 30 31 32 33 34 35 36 37 38 39 40 41 42 43 44 45 46 47 48 49 50
000
ASUS45 KBOI 220910
RWRID
WEATHER ROUNDUP FOR IDAHO
NATIONAL WEATHER SERVICE BOISE ID
300 AM MDT TUE JUL 22 2014

NOTE: "FAIR" INDICATES FEW OR NO CLOUDS BELOW 12000 FEET
WITH NO SIGNIFICANT WEATHER AND/OR OBSTRUCTIONS TO VISIBILITY

IDZ012-014-221000-
SOUTHWEST IDAHO


CITY           SKY/WX    TMP DP  RH WIND       PRES   REMARKS
BOISE          CLOUDY    70  55  59 SE5       30.08S
CALDWELL       MOCLDY    66  52  59 CALM      30.09S
MOUNTAIN HOME  CLEAR     62  60  93 E8        30.11R
$$

IDZ016-017-221000-
SOUTHCENTRAL IDAHO


CITY           SKY/WX    TMP DP  RH WIND       PRES   REMARKS
BURLEY         MOCLDY    60  54  80 CALM      30.17R
JEROME         PTCLDY    63  53  70 S5        30.19R
TWIN FALLS     MOCLDY    63  51  65 S13       30.17R
$$

IDZ019>023-221000-
SOUTHEAST IDAHO


CITY           SKY/WX    TMP DP  RH WIND       PRES   REMARKS
IDAHO FALLS    MOCLDY    63  49  60 S8        30.20R
POCATELLO      LGT RAIN  64  55  72 SW8       30.20R
REXBURG        MOCLDY    61  47  59 N3        30.20R
$$

IDZ006-010-011-018-031-032-221000-
CENTRAL IDAHO MOUNTAINS


CITY           SKY/WX    TMP DP  RH WIND       PRES   REMARKS
MCCALL         CLOUDY    60  52  74 CALM      30.19S
HAILEY         CLEAR     55  48  76 NW9       30.25R
STANLEY          N/A     51  48  89 CALM      30.30R
SALMON         CLOUDY    66  46  48 SE5       30.09S
CHALLIS        CLOUDY    64  47  53 S3        30.19R
$$

IDZ002-004-006-007-026-221000-
NORTHERN IDAHO


CITY           SKY/WX    TMP DP  RH WIND       PRES   REMARKS
LEWISTON       LGT RAIN  71  47  42 CALM      29.99F
LOWELL           N/A     62  52  69 NW5       30.06R
COEUR D`ALENE  CLOUDY    63  48  59 MISG      30.04S
MULLAN PASS    CLOUDY    56  29  35 S6        30.21S
$$


USA.gov is the U.S. government's official web portal to all federal, state and local government web resources and services.